This is the latest recevied weather packets stored in our database for station/object WD0REW. If no packets are shown the sender has not sent any weather packets the latest 1 day(s).
| Time | Temp. | Humidity | Pressure | Rain* | Wind** | Luminosity | Snow |
|---|---|---|---|---|---|---|---|
| 1778036684 | 7.22° C | 89% | 1012.8 hPa | 0 mm | 0.45 m/s, 357° | 0 W/m² | - |
| 1778036380 | 7.78° C | 89% | 1012.6 hPa | 0 mm | 0 m/s | 0 W/m² | - |
| 1778036077 | 7.22° C | 90% | 1012.8 hPa | 0 mm | 0.89 m/s, 346° | 0 W/m² | - |
| 1778035774 | 7.22° C | 89% | 1012.6 hPa | 0 mm | 0.89 m/s, 356° | 0 W/m² | - |
| 1778035471 | 7.22° C | 89% | 1012.5 hPa | 0 mm | 1.79 m/s, 0° | 0 W/m² | - |
| 1778035166 | 7.22° C | 89% | 1012.2 hPa | 0 mm | 0.45 m/s, 354° | 0 W/m² | - |
| 1778034864 | 7.22° C | 89% | 1012 hPa | 0 mm | 0.45 m/s, 3° | 0 W/m² | - |
| 1778034560 | 7.22° C | 89% | 1012.2 hPa | 0 mm | 0 m/s | 0 W/m² | - |
| 1778034258 | 7.22° C | 89% | 1011.9 hPa | 0 mm | 0.45 m/s, 332° | 0 W/m² | - |
| 1778033956 | 7.22° C | 89% | 1011.9 hPa | 0 mm | 0.45 m/s, 2° | 0 W/m² | - |
| 1778033653 | 7.22° C | 89% | 1011.9 hPa | 0 mm | 0.45 m/s, 345° | 0 W/m² | - |
| 1778033349 | 7.78° C | 89% | 1011.8 hPa | 0 mm | 0.89 m/s, 356° | 0 W/m² | - |
| 1778033048 | 7.22° C | 89% | 1011.9 hPa | 0 mm | 1.34 m/s, 359° | 0 W/m² | - |
| 1778032744 | 7.22° C | 89% | 1012 hPa | 0 mm | 0.45 m/s, 38° | 0 W/m² | - |
| 1778032442 | 7.22° C | 89% | 1011.6 hPa | 0 mm | 0.89 m/s, 344° | 0 W/m² | - |
| 1778032139 | 7.22° C | 89% | 1011.7 hPa | 0 mm | 0.89 m/s, 354° | 0 W/m² | - |
| 1778031835 | 7.22° C | 89% | 1011.5 hPa | 0 mm | 1.79 m/s, 356° | 0 W/m² | - |
| 1778031532 | 7.22° C | 90% | 1011.5 hPa | 1.78 mm | 0.45 m/s, 359° | 0 W/m² | - |
| 1778031230 | 7.22° C | 90% | 1011.4 hPa | 0 mm | 0.45 m/s, 352° | 0 W/m² | - |
| 1778030926 | 7.22° C | 89% | 1011.4 hPa | 0 mm | 0.89 m/s, 353° | 0 W/m² | - |
| 1778030623 | 7.22° C | 90% | 1011.3 hPa | 0 mm | 0 m/s | 0 W/m² | - |
| 1778030320 | 7.22° C | 90% | 1011.3 hPa | 0 mm | 2.24 m/s, 352° | 0 W/m² | - |
| 1778030017 | 7.22° C | 89% | 1011.3 hPa | 0 mm | 0.45 m/s, 354° | 0 W/m² | - |
| 1778029714 | 7.22° C | 89% | 1011.2 hPa | 0 mm | 2.24 m/s, 343° | 0 W/m² | - |
| 1778029412 | 7.22° C | 89% | 1011.3 hPa | 0 mm | 3.58 m/s, 351° | 1 W/m² | - |
* Rain latest hour (hover to see other rain measurements)
** Current wind speed in m/s (hover to see current wind gust speed)